FW6128 Weather Reports


time (UTC)temp
F
wind
direction
speed
knots
gust
knots
rain 1hr
in
rain 24hr
in
rain mn
in
humidity
%
barometer
mb
20260508175312 56 270 16.5 26.9 0.00 0.00 0.00 37 1006.9
20260508174803 56 270 18.2 26.1 0.00 0.00 0.00 36 1006.8
20260508174251 56 225 14.8 33.0 0.00 0.00 0.00 38 1007.0
20260508173750 56 270 17.4 33.0 0.00 0.00 0.00 37 1007.0
20260508173232 56 225 20.9 31.3 0.00 0.00 0.00 38 1006.9
20260508172722 56 293 20.0 31.3 0.00 0.00 0.00 37 1006.9
20260508171702 55 225 19.1 29.5 0.00 0.00 0.00 40 1006.9
20260508171154 55 203 17.4 29.5 0.00 0.00 0.00 40 1007.0
20260508170640 56 248 16.5 26.1 0.00 0.00 0.00 42 1007.1
20260508170131 56 248 18.2 26.9 0.00 0.00 0.00 41 1006.9
20260508165620 55 270 20.0 29.5 0.00 0.00 0.00 41 1006.9
20260508165110 55 293 21.7 29.5 0.00 0.00 0.00 43 1007.1
20260508164600 55 293 18.2 27.8 0.00 0.00 0.00 41 1007.0
20260508164049 55 225 22.6 27.8 0.00 0.00 0.00 43 1007.2
20260508163030 55 248 18.2 33.0 0.00 0.00 0.00 43 1007.4
20260508162520 55 225 26.1 31.3 0.00 0.00 0.00 43 1007.4
20260508162010 54 270 17.4 29.5 0.00 0.00 0.00 43 1007.6
20260508161459 55 293 19.1 26.9 0.00 0.00 0.00 44 1007.7
20260508160949 54 203 19.1 26.9 0.00 0.00 0.00 44 1007.6
20260508155929 54 248 15.6 23.5 0.00 0.00 0.00 45 1007.9
20260508155419 54 225 13.0 26.9 0.00 0.00 0.00 46 1007.9
20260508154909 54 270 14.8 27.8 0.00 0.00 0.00 47 1007.9
20260508154358 53 270 16.5 27.8 0.00 0.00 0.00 47 1008.0
20260508153848 53 225 20.0 26.9 0.00 0.00 0.00 47 1008.0
20260508153339 54 248 20.0 31.3 0.00 0.00 0.00 49 1008.1
20260508152318 53 225 26.1 31.3 0.00 0.00 0.00 49 1008.3
20260508151807 53 225 13.0 31.3 0.00 0.00 0.00 50 1008.4
20260508151258 52 225 20.9 31.3 0.00 0.00 0.00 51 1008.4
20260508150747 52 248 19.1 31.3 0.00 0.00 0.00 51 1008.5
20260508150237 53 248 20.0 31.3 0.00 0.00 0.00 52 1008.6
20260508145727 52 225 25.2 29.5 0.00 0.00 0.00 53 1008.5
20260508145216 52 225 21.7 29.5 0.00 0.00 0.00 53 1008.5
20260508144715 52 225 18.2 31.3 0.00 0.00 0.00 52 1008.5
20260508144157 52 225 20.0 31.3 0.00 0.00 0.00 54 1008.7
20260508143646 51 225 20.9 33.0 0.00 0.00 0.00 53 1008.8
20260508143136 51 225 20.9 34.8 0.00 0.00 0.00 54 1008.7
20260508142626 51 225 25.2 34.8 0.00 0.00 0.00 54 1008.8
20260508142117 50 225 19.1 31.3 0.00 0.00 0.00 55 1008.8
20260508141056 50 225 20.9 33.9 0.00 0.00 0.00 56 1008.8
20260508140545 50 248 20.9 33.9 0.00 0.00 0.00 55 1008.7
20260508140035 50 225 23.5 31.3 0.00 0.00 0.00 55 1008.7
20260508135526 50 225 23.5 31.3 0.00 0.00 0.00 55 1008.6
20260508134505 49 225 20.9 31.3 0.00 0.00 0.00 55 1008.6
20260508133955 49 203 25.2 33.9 0.00 0.00 0.00 55 1008.8
20260508133445 49 225 24.3 33.9 0.00 0.00 0.00 56 1008.5
20260508132424 49 225 22.6 33.0 0.00 0.00 0.00 57 1008.5
20260508131915 49 203 26.1 31.3 0.00 0.00 0.00 57 1008.7
20260508131404 49 203 18.2 31.3 0.00 0.00 0.00 57 1008.6
20260508130853 49 203 19.1 29.5 0.00 0.00 0.00 58 1008.5
20260508130343 48 203 20.0 29.5 0.00 0.00 0.00 58 1008.5
20260508125833 48 225 24.3 29.5 0.00 0.00 0.00 58 1008.3
20260508125323 48 225 20.0 31.3 0.00 0.00 0.00 58 1008.5
20260508124814 48 203 19.1 31.3 0.00 0.00 0.00 59 1008.3
20260508124303 48 203 24.3 29.5 0.00 0.00 0.00 59 1008.4
20260508123754 48 225 20.9 29.5 0.00 0.00 0.00 60 1008.4
20260508123243 48 203 22.6 27.8 0.00 0.00 0.00 61 1008.4
20260508122223 47 225 23.5 29.5 0.00 0.00 0.00 62 1008.5
20260508121712 47 225 23.5 29.5 0.00 0.00 0.00 62 1008.4
20260508121202 47 225 20.0 25.2 0.00 0.00 0.00 63 1008.7
20260508120652 47 225 18.2 25.2 0.00 0.00 0.00 64 1008.6
20260508120142 47 225 20.0 25.2 0.00 0.00 0.00 64 1008.6
20260508115636 46 225 13.9 19.1 0.00 0.00 0.00 67 1008.7
20260508115121 45 203 7.0 18.2 0.00 0.00 0.00 68 1008.6
20260508114612 45 225 13.0 18.2 0.00 0.00 0.00 68 1008.6
20260508113551 45 225 12.2 19.1 0.00 0.00 0.00 68 1008.4
20260508113043 44 248 10.4 19.1 0.00 0.00 0.00 68 1008.5
20260508112530 44 248 9.6 18.2 0.00 0.00 0.00 69 1008.3
20260508112021 44 248 10.4 18.2 0.00 0.00 0.00 68 1008.2
20260508111000 44 203 10.4 18.2 0.00 0.00 0.00 68 1008.2
20260508110450 44 225 8.7 19.1 0.00 0.00 0.00 68 1008.0
20260508105941 44 248 8.7 19.1 0.00 0.00 0.00 68 1007.9
20260508105430 45 248 13.0 19.1 0.00 0.00 0.00 68 1008.0
20260508104920 45 225 13.0 19.1 0.00 0.00 0.00 67 1007.8
20260508104410 45 293 9.6 21.7 0.00 0.00 0.00 67 1007.9
20260508103900 45 225 14.8 21.7 0.00 0.00 0.00 66 1007.8
20260508103349 45 248 9.6 20.9 0.00 0.00 0.00 66 1008.0
20260508102839 45 270 8.7 20.9 0.00 0.00 0.00 66 1007.9
20260508102329 45 248 12.2 20.9 0.00 0.00 0.00 66 1007.9
20260508101309 45 225 13.0 23.5 0.00 0.00 0.00 66 1007.9
20260508100249 46 225 11.3 19.1 0.00 0.00 0.00 65 1007.7
20260508095738 46 225 9.6 20.9 0.00 0.00 0.00 66 1007.7
20260508095229 46 225 9.6 20.9 0.00 0.00 0.00 65 1007.6
20260508094725 46 248 11.3 20.0 0.00 0.00 0.00 66 1007.5
20260508094208 46 225 7.8 17.4 0.00 0.00 0.00 66 1007.5
20260508093658 45 248 9.6 19.1 0.00 0.00 0.00 66 1007.4
20260508093148 46 225 13.0 19.1 0.00 0.00 0.00 66 1007.1
20260508092638 45 248 10.4 18.2 0.00 0.00 0.00 67 1007.1
20260508092128 45 225 9.6 18.2 0.00 0.00 0.00 66 1007.1
20260508091618 45 225 9.6 18.2 0.00 0.00 0.00 66 1007.0
20260508091107 45 248 7.8 18.2 0.00 0.00 0.00 66 1007.0
20260508090600 45 225 10.4 18.2 0.00 0.00 0.00 66 1007.0
20260508085538 44 225 7.0 18.2 0.00 0.00 0.00 66 1007.0
20260508085027 44 270 8.7 18.2 0.00 0.00 0.00 65 1006.8
20260508084518 44 225 10.4 18.2 0.00 0.00 0.00 65 1006.9
20260508084007 44 270 9.6 19.1 0.00 0.00 0.00 66 1006.8
20260508083456 44 225 7.8 19.1 0.00 0.00 0.00 66 1006.8
20260508082946 44 248 10.4 19.1 0.00 0.00 0.00 66 1006.8
20260508081926 44 270 9.6 18.2 0.00 0.00 0.00 65 1006.8
20260508080906 44 248 7.0 18.2 0.00 0.00 0.00 65 1006.7
20260508080356 44 248 7.8 18.2 0.00 0.00 0.00 65 1006.6
20260508075846 44 225 9.6 18.2 0.00 0.00 0.00 64 1006.7
20260508075336 45 293 13.0 19.1 0.00 0.00 0.00 64 1006.7
20260508074825 44 270 10.4 19.1 0.00 0.00 0.00 64 1006.7
20260508074315 44 270 7.8 21.7 0.00 0.00 0.00 64 1006.7
20260508073805 44 225 9.6 21.7 0.00 0.00 0.00 65 1006.6
20260508073255 44 248 7.8 20.9 0.00 0.00 0.00 64 1006.6
20260508072234 44 225 13.9 23.5 0.00 0.00 0.00 65 1006.5
20260508071724 44 203 12.2 20.0 0.00 0.00 0.00 65 1006.6
20260508071215 44 248 12.2 20.0 0.00 0.00 0.00 64 1006.6
20260508070154 44 248 8.7 20.9 0.00 0.00 0.00 64 1006.8
20260508065644 44 270 8.7 20.9 0.00 0.00 0.00 64 1006.7
20260508065133 45 248 9.6 18.2 0.00 0.00 0.00 63 1006.6
20260508064625 44 248 10.4 18.2 0.00 0.00 0.00 63 1006.7
20260508064113 45 248 9.6 20.9 0.00 0.00 0.00 61 1006.6
20260508063603 45 248 12.2 20.9 0.00 0.00 0.00 61 1006.6
20260508062547 46 293 9.6 19.1 0.00 0.00 0.00 61 1006.7
20260508061013 46 248 7.0 18.2 0.00 0.00 0.00 62 1006.8
20260508060502 46 248 9.6 0.0 0.00 0.00 0.00 62 1006.9
20260508060245 46 248 9.6 0.0 0.00 0.00 0.00 63 1006.9
20260508055613 46 248 9.6 17.4 0.00 0.00 0.00 65 1007.0
20260508055101 46 225 12.2 18.2 0.00 0.00 0.00 65 1007.1
20260508054552 46 248 8.7 18.2 0.00 0.00 0.00 66 1006.9
20260508054040 46 225 7.0 17.4 0.00 0.00 0.00 67 1007.0
20260508053530 46 248 8.7 17.4 0.00 0.00 0.00 69 1007.0
20260508053021 46 203 9.6 17.4 0.00 0.00 0.00 70 1006.9
20260508052510 46 293 7.8 18.2 0.00 0.00 0.00 70 1007.0
20260508051449 46 248 13.0 21.7 0.00 0.00 0.00 70 1007.0
20260508050940 47 225 13.0 21.7 0.00 0.00 0.00 70 1007.1
20260508050430 47 225 13.0 20.9 0.00 0.00 0.00 71 1007.1
20260508045931 47 225 9.6 20.9 0.00 0.00 0.00 71 1007.1
20260508045410 47 225 9.6 17.4 0.00 0.00 0.00 72 1007.2
20260508044859 47 248 8.7 17.4 0.00 0.00 0.00 73 1007.2
20260508044349 47 225 9.6 17.4 0.00 0.00 0.00 73 1007.0
20260508043839 47 248 9.6 17.4 0.00 0.00 0.00 74 1006.9
20260508043329 47 203 11.3 23.5 0.00 0.00 0.00 74 1006.9
20260508042310 48 225 16.5 21.7 0.00 0.00 0.00 73 1006.8
20260508041801 48 248 13.0 21.7 0.00 0.00 0.00 74 1006.8
20260508041249 48 248 10.4 19.1 0.00 0.00 0.00 75 1006.9
20260508040738 48 203 10.4 19.1 0.00 0.00 0.00 75 1006.9
20260508040227 48 225 8.7 17.4 0.00 0.00 0.00 76 1006.8
20260508035717 48 248 8.7 17.4 0.00 0.00 0.00 77 1006.6
20260508034146 48 270 7.0 18.2 0.00 0.00 0.00 80 1006.5
20260508033637 48 293 7.8 17.4 0.00 0.00 0.00 80 1006.5
20260508033127 48 270 8.7 20.0 0.00 0.00 0.00 80 1006.4
20260508032621 48 293 7.0 20.0 0.00 0.00 0.00 80 1006.3
20260508032107 48 270 7.0 17.4 0.00 0.00 0.00 79 1006.3
20260508031557 49 248 7.8 18.2 0.00 0.00 0.00 78 1006.3
20260508031047 49 203 10.4 18.2 0.00 0.00 0.00 78 1006.1
20260508030027 49 248 7.8 19.1 0.00 0.00 0.00 78 1006.2
20260508025516 49 248 10.4 19.1 0.00 0.00 0.37 79 1006.2
20260508025021 49 248 5.2 20.0 0.00 0.00 0.37 79 1006.2
20260508024455 49 225 7.0 20.0 0.00 0.00 0.37 79 1006.2
20260508023945 49 225 10.4 20.9 0.00 0.00 0.37 79 1006.2
20260508023440 49 225 7.0 20.9 0.00 0.00 0.37 79 1006.1
20260508022415 50 225 7.0 11.3 0.00 0.00 0.37 79 1006.1
20260508021904 50 225 4.3 9.6 0.00 0.00 0.37 79 1006.0
20260508021355 51 225 4.3 14.8 0.00 0.00 0.37 78 1006.0
20260508020853 51 225 4.3 18.2 0.00 0.00 0.37 78 1006.1
20260508020335 51 225 8.7 18.2 0.00 0.00 0.37 78 1006.0
20260508015824 52 225 9.6 15.6 0.00 0.00 0.37 78 1006.2
20260508015314 52 270 4.3 13.0 0.00 0.00 0.37 78 1006.2
20260508014804 52 225 6.1 14.8 0.00 0.00 0.37 78 1006.2
20260508014255 52 225 7.8 18.2 0.00 0.00 0.37 77 1006.2
20260508013744 52 225 8.7 20.9 0.00 0.00 0.37 77 1006.4
20260508013234 52 225 9.6 20.9 0.00 0.00 0.37 77 1006.4
20260508011704 53 225 8.7 12.2 0.00 0.00 0.37 76 1006.4
20260508011154 53 225 7.0 14.8 0.00 0.00 0.37 76 1006.5
20260508010642 53 225 10.4 15.6 0.00 0.00 0.37 76 1006.5
20260508005113 53 225 7.8 15.6 0.00 0.00 0.37 75 1006.7
20260508004603 53 225 7.8 13.9 0.00 0.00 0.37 75 1006.8
20260508004052 53 203 8.7 14.8 0.00 0.00 0.37 75 1006.8
20260508003549 53 225 7.8 19.1 0.00 0.00 0.37 75 1006.7
20260508003032 53 225 10.4 20.0 0.00 0.00 0.37 75 1006.7
20260508002522 53 225 12.2 20.0 0.00 0.00 0.37 75 1006.6
20260508002011 53 225 9.6 17.4 0.00 0.00 0.37 74 1006.6
20260508001502 53 203 7.8 19.1 0.00 0.00 0.37 74 1006.7
20260508000951 53 203 9.6 20.9 0.00 0.00 0.37 74 1006.7
20260508000442 54 203 7.8 20.9 0.00 0.00 0.37 74 1006.7
20260507235932 54 225 13.0 20.9 0.00 0.00 0.37 73 1006.6
20260507234910 54 203 11.3 23.5 0.00 0.00 0.37 74 1006.5
20260507234400 54 225 14.8 23.5 0.00 0.00 0.37 74 1006.4
20260507233850 54 203 13.0 29.5 0.00 0.00 0.37 72 1006.4
20260507233342 55 203 14.8 29.5 0.00 0.00 0.37 72 1006.5
20260507232830 55 203 17.4 29.5 0.00 0.00 0.37 72 1006.6
20260507232320 55 203 21.7 33.9 0.00 0.00 0.37 72 1006.5
20260507231300 55 225 19.1 23.5 0.00 0.00 0.37 72 1006.4
20260507230751 55 225 9.6 21.7 0.00 0.00 0.37 72 1006.4
20260507230239 55 203 11.3 20.9 0.00 0.00 0.37 72 1006.4
20260507225729 55 203 11.3 20.9 0.00 0.00 0.37 72 1006.3
20260507225219 55 203 13.0 20.9 0.00 0.00 0.37 72 1006.2
20260507224709 56 225 13.0 23.5 0.00 0.00 0.37 71 1006.0
20260507224159 56 203 9.6 23.5 0.00 0.00 0.37 71 1005.8
20260507223648 56 203 9.6 21.7 0.00 0.00 0.37 71 1005.6
20260507222628 56 203 9.6 21.7 0.00 0.00 0.37 70 1005.4
20260507222119 56 225 17.4 21.7 0.00 0.00 0.37 69 1005.1
20260507221058 56 203 7.0 19.1 0.00 0.00 0.37 70 1004.8
20260507220547 56 225 11.3 23.5 0.00 0.00 0.37 69 1004.7
20260507220038 56 225 12.2 23.5 0.00 0.00 0.37 69 1004.8
20260507215528 56 225 13.9 19.1 0.00 0.00 0.37 69 1004.6
20260507215018 56 225 9.6 17.4 0.00 0.00 0.37 69 1004.5
20260507214511 56 203 9.6 20.0 0.00 0.00 0.37 69 1004.3
20260507213957 56 225 9.6 20.0 0.00 0.00 0.37 69 1004.2
20260507213447 57 225 14.8 21.7 0.00 0.00 0.37 67 1003.8
20260507212936 57 225 12.2 21.7 0.00 0.00 0.37 67 1003.8
20260507212427 57 203 12.2 19.1 0.00 0.00 0.37 68 1003.7
20260507211916 57 203 14.8 20.9 0.00 0.00 0.37 68 1004.2
20260507211406 57 225 11.3 23.5 0.00 0.00 0.37 68 1004.4
20260507210856 57 225 13.0 23.5 0.00 0.00 0.37 68 1004.4
20260507210346 57 203 9.6 23.5 0.00 0.00 0.37 69 1004.3
20260507205835 57 293 18.2 23.5 0.00 0.00 0.37 67 1004.4
20260507205328 57 225 9.6 23.5 0.00 0.00 0.37 68 1004.5
20260507204816 57 203 13.0 23.5 0.00 0.00 0.37 69 1004.5
20260507204305 57 180 17.4 23.5 0.00 0.00 0.37 67 1004.4
20260507203756 57 158 10.4 20.0 0.00 0.00 0.37 69 1004.5
20260507203245 57 203 9.6 23.5 0.00 0.00 0.37 70 1004.6
20260507202743 57 225 11.3 26.1 0.00 0.00 0.37 69 1004.6
20260507201714 57 248 14.8 25.2 0.00 0.00 0.37 70 1004.6
20260507201204 57 248 14.8 23.5 0.00 0.00 0.37 71 1004.5
20260507195124 57 225 19.1 27.8 0.00 0.00 0.37 71 1003.7
20260507194615 57 225 20.9 27.8 0.00 0.00 0.37 70 1003.6
20260507194103 58 203 17.4 27.8 0.00 0.00 0.37 70 1003.6
20260507193554 58 225 18.2 29.5 0.00 0.00 0.37 70 1003.5
20260507193044 58 225 18.2 34.8 0.00 0.00 0.37 70 1003.3
20260507192534 58 225 26.9 34.8 0.00 0.00 0.37 69 1003.1
20260507192024 58 203 29.5 34.8 0.00 0.00 0.37 69 1002.7
20260507185432 58 203 20.0 27.8 0.00 0.00 0.37 69 1003.0
20260507184921 58 225 20.0 26.1 0.00 0.00 0.37 69 1002.8
20260507183902 58 225 23.5 26.9 0.00 0.00 0.37 68 1003.2
20260507183351 58 225 18.2 26.9 0.00 0.00 0.37 67 1003.5
20260507182842 58 203 21.7 29.5 0.00 0.00 0.37 67 1003.4
20260507182331 58 225 22.6 31.3 0.00 0.00 0.37 67 1003.7
20260507181817 59 135 21.7 31.3 0.00 0.00 0.37 66 1004.1
20260507181309 59 203 19.1 26.1 0.00 0.00 0.37 67 1004.2
20260507180802 59 203 18.2 27.8 0.00 0.00 0.37 66 1004.4
20260507180251 59 203 17.4 27.8 0.00 0.00 0.37 65 1004.4
20260507175740 59 203 20.0 27.8 0.00 0.00 0.37 65 1004.3